Theta_e
336 336 337 337 338 338 338 337 337 336 332 328 326 327 327 328 328 328 329 330 330 330 330 331 331 332 335 336 335 333 333 333 333 333 333 332 330 328 324 324 325 326 327 327 328 328 327 326 327 326 324 324 324 324 325 323 322 323 323 323 324 323 323 323 323 323 322 322 323 324 323 322 320 320 321 322 323 324 325 326 326 328 329 328 328
336 336 337 337 337 337 338 337 337 337 337 333 329 327 327 327 328 329 329 330 330 330 331 331 332 333 335 336 335 334 333 333 333 333 333 332 331 329 325 324 326 327 326 327 328 329 327 327 326 327 326 325 325 324 324 324 323 323 323 323 324 323 323 323 324 323 322 321 322 323 324 323 323 321 319 320 322 323 324 325 325 326 328 328 327
338 337 337 337 337 337 337 338 338 337 338 337 334 332 330 328 328 328 329 330 330 331 332 332 333 334 334 335 336 334 334 333 333 333 333 333 331 330 326 325 327 327 327 327 327 328 328 326 326 327 327 326 325 323 324 323 322 323 323 323 324 324 323 323 323 323 322 321 322 323 324 324 324 323 321 320 320 321 323 324 325 325 326 326 326
338 337 337 337 337 337 338 338 338 338 338 337 337 335 334 332 330 329 328 328 329 331 332 332 332 333 333 335 335 335 334 333 332 333 333 332 331 330 326 325 327 327 327 327 326 327 328 327 326 327 327 326 325 324 324 323 323 323 323 323 324 322 322 322 322 322 323 323 323 323 324 324 325 324 323 322 320 319 320 322 324 325 325 325 325
337 337 336 336 336 337 337 338 338 338 338 337 337 337 336 335 333 332 330 329 329 330 331 331 331 331 332 334 335 335 335 333 333 332 333 332 331 331 327 325 327 327 327 327 325 325 326 327 327 327 327 326 325 324 324 323 323 323 323 324 323 322 322 323 322 322 322 323 323 324 323 324 324 324 324 323 321 320 320 321 322 323 324 324 324
336 336 336 336 336 336 336 337 338 338 337 337 337 337 336 336 335 334 333 333 331 331 332 332 332 332 331 333 334 335 334 334 333 332 332 332 331 331 328 325 326 327 327 327 326 325 325 326 327 328 327 326 325 324 325 324 324 324 323 323 323 323 323 324 323 322 322 323 323 323 323 323 324 324 324 323 322 320 320 321 321 322 322 323 323
335 335 335 335 335 335 336 336 337 337 337 337 337 337 337 336 336 335 335 335 334 334 333 333 333 332 331 332 334 335 334 334 333 332 331 332 331 331 329 326 326 326 327 328 327 325 325 325 326 328 327 326 325 324 325 324 324 324 323 324 323 323 323 323 322 321 321 323 323 322 323 323 323 324 324 323 322 321 321 321 321 321 321 321 320
336 335 334 335 335 335 335 336 336 336 337 337 337 337 337 337 336 336 336 336 335 335 334 334 332 331 331 332 333 334 335 334 334 333 332 331 331 331 330 327 326 326 326 327 327 325 325 325 326 327 326 326 325 323 325 325 325 324 324 324 323 323 324 324 321 319 320 323 323 322 322 323 323 323 323 323 323 322 321 320 320 320 321 320 320
336 335 335 334 334 335 335 335 336 337 337 336 336 337 337 336 336 336 336 336 336 335 335 334 332 331 330 332 333 333 333 333 334 333 332 331 331 330 330 328 327 327 326 325 326 325 325 324 325 327 327 326 325 323 323 325 325 324 325 324 323 324 324 325 323 319 320 322 323 323 322 323 323 322 322 323 323 323 322 321 321 322 322 322 322
335 335 334 334 334 334 334 335 336 336 336 336 336 336 336 336 335 335 335 335 335 335 335 334 333 332 331 332 332 333 333 333 333 333 332 331 331 331 330 330 328 328 327 325 323 324 325 324 323 325 326 325 325 323 322 325 325 324 326 324 324 326 324 324 324 321 321 322 322 323 323 322 322 322 322 322 323 323 323 322 322 323 323 323 323
335 335 334 334 334 334 334 335 335 336 336 336 336 335 335 335 334 334 334 334 334 334 334 333 332 332 332 332 332 333 333 333 333 332 332 332 331 331 330 330 329 328 328 326 324 323 325 324 322 324 325 324 325 323 321 324 326 324 325 325 325 326 324 324 325 323 321 320 321 323 323 321 322 322 321 322 323 324 323 322 323 323 322 322 322
335 335 334 333 333 334 334 335 335 335 334 334 335 334 334 334 334 334 334 333 333 333 333 332 332 331 331 331 332 333 332 332 332 332 332 332 331 330 330 330 330 328 328 327 325 324 325 324 322 323 323 323 324 324 321 322 326 325 325 326 326 326 325 324 325 324 320 318 321 322 322 321 322 322 321 323 323 324 323 322 323 323 322 321 321
335 334 334 333 333 333 333 333 334 333 333 333 334 334 333 333 333 333 332 331 331 331 331 331 332 331 331 331 331 332 332 332 332 332 332 332 331 330 330 330 330 329 328 328 327 326 326 325 323 323 323 323 323 324 321 321 325 325 324 326 326 326 327 325 325 326 322 319 321 321 321 321 322 322 322 323 323 324 324 323 323 322 322 322 321
334 333 333 333 332 332 332 332 332 332 333 333 333 332 331 332 331 331 330 330 330 331 331 331 331 331 331 331 331 331 331 331 331 332 332 332 332 330 330 330 330 330 329 328 328 327 327 326 324 323 323 323 322 323 321 319 323 325 324 325 326 326 326 326 326 326 326 323 321 320 320 321 322 322 323 323 324 324 324 323 323 322 322 322 322
334 333 333 332 332 332 332 332 332 332 332 331 331 330 330 330 330 330 330 330 331 331 331 331 331 331 331 330 331 331 331 330 330 331 331 331 331 330 330 330 330 331 330 329 329 328 328 327 326 325 324 325 324 323 320 317 319 322 322 324 326 326 326 327 327 327 327 325 322 319 319 321 322 322 323 323 324 324 324 324 323 323 323 323 322
332 332 332 332 332 331 331 331 330 330 331 330 329 329 329 329 329 330 330 330 331 331 331 331 331 331 331 330 330 330 332 330 328 330 330 330 331 330 330 330 330 331 330 330 329 329 329 328 327 327 325 326 325 324 320 315 315 317 318 321 324 326 327 327 328 328 327 326 324 320 319 322 322 322 323 324 324 324 324 324 324 324 323 323 323
331 331 331 331 331 331 330 330 329 329 329 329 328 328 329 329 329 330 330 330 330 331 331 330 330 330 330 331 330 331 332 330 328 330 329 329 330 330 329 330 330 330 331 331 330 330 330 328 328 328 327 326 327 326 322 316 313 313 313 316 322 325 326 328 328 328 328 327 325 321 319 320 322 323 323 324 324 324 324 324 324 324 323 323 323
330 329 329 330 330 329 329 329 329 330 329 329 328 328 328 328 328 329 330 330 330 330 331 330 330 330 329 330 330 331 331 330 330 331 330 329 330 330 330 330 330 330 330 331 331 330 330 329 329 328 328 328 328 328 325 318 313 312 310 311 318 323 326 327 328 328 328 328 327 323 320 320 321 323 323 323 323 324 324 324 324 324 323 323 322
328 328 328 328 329 329 329 329 329 329 329 329 329 328 328 327 327 328 329 329 330 331 331 331 331 330 330 330 330 330 330 330 331 332 331 330 329 329 330 329 329 330 330 331 331 331 331 330 330 329 328 329 329 328 327 321 314 311 309 309 314 321 325 326 327 328 328 329 328 325 322 320 320 322 323 323 323 323 324 323 324 324 323 323 321
326 326 326 326 327 328 328 328 328 328 328 328 328 328 328 328 328 328 328 328 329 329 331 331 330 330 330 330 330 330 330 330 330 330 332 331 330 329 330 329 329 329 329 330 331 331 331 331 331 330 329 329 329 329 328 324 318 313 310 309 311 318 323 325 326 327 328 328 328 327 324 320 320 321 322 323 322 323 323 324 324 323 323 322 321
323 324 323 324 325 325 326 326 326 326 325 326 326 327 327 328 328 328 328 328 328 328 329 329 329 330 330 330 330 330 329 330 330 330 330 331 331 330 330 330 329 329 329 329 330 331 331 332 331 330 330 330 330 329 328 326 322 318 313 310 311 316 321 325 325 327 328 328 328 328 325 322 322 323 323 323 323 322 322 323 324 323 323 322 320
320 321 321 321 322 323 323 324 323 322 323 323 324 324 324 326 327 327 328 328 328 328 328 328 329 329 330 330 330 330 330 330 329 329 329 329 330 330 329 329 329 329 328 329 329 330 330 331 331 331 331 332 331 329 329 328 326 324 320 315 313 316 320 323 325 325 327 327 327 328 327 324 322 323 323 323 323 322 322 323 323 323 323 321 320
317 317 318 319 319 320 320 321 320 320 320 321 321 321 321 323 324 324 325 325 326 326 327 327 328 328 329 329 329 330 330 330 330 330 329 328 329 329 328 328 329 329 329 329 329 329 330 330 330 330 331 332 331 330 329 328 328 328 326 321 318 319 321 323 325 325 326 327 327 327 328 326 323 323 323 322 322 322 321 322 322 322 322 321 319
314 314 314 315 316 316 317 318 317 317 318 318 318 318 319 320 321 321 321 322 322 323 323 324 325 326 327 327 328 328 328 329 329 330 329 329 329 329 328 327 328 329 329 330 329 329 330 330 330 330 331 332 332 331 330 328 328 329 328 325 322 321 323 324 325 326 326 326 327 327 328 327 325 324 323 322 321 321 320 320 320 320 320 319 319
310 310 311 311 312 313 314 313 313 313 314 315 315 316 317 317 318 318 318 318 319 319 320 321 322 323 325 326 326 327 327 328 328 329 329 329 328 328 328 327 327 328 328 329 330 329 329 330 330 330 331 331 332 331 330 329 329 329 329 328 325 323 324 325 327 327 326 326 327 327 327 326 326 325 324 323 321 320 319 319 318 319 319 318 318
306 307 307 308 309 310 310 310 309 310 311 312 313 314 314 314 314 315 316 316 316 317 318 319 320 321 322 323 324 325 325 326 327 328 328 328 328 328 328 327 327 327 328 328 329 329 330 330 330 330 330 331 331 332 331 330 330 329 329 329 327 326 326 327 328 328 327 327 327 327 326 325 326 326 325 323 321 320 319 318 317 318 318 317 317
304 304 305 306 307 307 307 307 307 307 307 308 309 309 310 311 311 312 313 313 314 315 316 316 317 318 319 320 321 323 324 325 326 327 328 328 328 328 328 328 328 328 328 328 328 328 329 329 329 329 330 330 330 331 331 331 330 330 329 329 329 328 327 328 328 328 328 327 327 327 326 325 325 326 326 324 322 320 318 316 316 317 318 317 317
303 303 304 304 305 305 304 303 303 304 304 304 304 305 306 306 307 308 309 310 311 312 312 313 313 314 315 316 317 319 321 323 324 326 327 328 329 328 327 327 329 329 328 328 328 328 328 328 329 329 329 330 330 330 331 331 331 330 330 329 329 329 329 328 328 328 328 328 327 327 326 325 324 325 326 325 323 320 318 315 315 317 318 315 315
302 302 302 302 302 302 301 300 301 301 302 302 302 303 303 304 304 304 304 305 306 307 308 308 309 310 311 312 313 315 317 319 321 324 326 327 328 328 328 327 327 329 329 329 329 328 328 328 329 329 329 329 330 329 330 330 331 331 330 329 329 329 329 329 328 328 328 328 327 327 326 325 324 324 325 325 324 321 318 315 313 315 317 314 314
300 300 300 300 300 299 299 299 299 299 300 300 300 301 301 302 302 302 302 301 302 303 304 304 305 306 307 308 309 312 314 315 317 320 324 326 328 328 328 328 327 327 328 328 329 328 327 328 328 329 329 329 330 330 330 330 331 330 330 330 329 330 330 329 329 328 328 328 328 327 326 325 323 324 324 325 325 323 319 317 313 313 315 315 314
299 299 299 299 299 298 298 298 298 298 298 298 299 299 300 300 300 300 300 299 300 301 302 302 303 303 303 305 306 308 310 311 313 316 320 323 326 328 328 328 328 327 327 327 328 328 327 327 328 328 329 329 330 330 330 330 330 330 330 330 330 330 330 330 329 328 328 328 328 327 326 326 324 323 324 324 325 324 321 319 315 312 313 314 315
299 299 298 298 298 297 297 297 297 297 297 297 297 298 298 298 298 297 297 297 298 299 300 302 302 302 302 303 303 305 306 307 310 313 315 319 323 326 328 328 328 328 327 327 328 328 327 327 328 328 328 329 329 330 330 330 330 330 330 330 331 331 330 330 329 328 329 328 328 328 327 327 325 323 323 323 324 325 322 321 318 314 312 312 314
299 298 298 297 297 297 296 296 296 296 296 296 296 297 297 297 297 297 296 297 297 298 299 300 301 302 302 302 303 304 305 305 308 310 312 315 318 322 326 328 328 328 327 327 328 328 327 327 327 327 328 328 329 329 330 330 330 330 330 330 330 331 331 330 329 329 329 329 329 328 327 327 326 324 323 322 323 325 323 322 320 317 313 310 313
297 297 296 296 296 296 296 296 295 295 295 295 296 296 296 297 297 297 296 296 297 297 298 299 300 301 302 302 303 304 304 305 306 308 310 312 314 318 321 324 326 328 328 328 327 327 327 326 326 326 327 327 328 328 329 329 330 329 330 330 330 330 330 330 330 329 329 329 329 328 328 327 326 326 324 322 322 324 324 323 321 320 316 309 311
296 295 295 295 295 295 295 295 295 295 295 295 295 295 295 295 296 296 296 296 296 297 298 299 300 301 302 302 303 303 304 305 306 308 310 311 313 315 316 317 320 323 326 328 328 327 327 327 326 326 326 326 327 328 328 329 330 329 330 330 330 330 330 330 330 329 329 329 329 328 328 327 326 327 325 322 321 322 323 323 322 321 319 312 309
295 295 295 295 295 295 295 295 295 295 295 295 295 295 295 295 295 295 295 295 295 296 297 298 299 300 301 301 302 303 303 304 306 307 309 309 309 310 311 312 314 317 320 325 328 328 327 327 327 326 326 326 326 327 328 328 329 329 330 330 330 329 329 330 330 329 329 329 329 328 327 327 326 326 326 323 321 321 322 323 322 321 320 316 310
295 295 294 295 295 295 295 295 295 295 295 294 294 295 295 295 295 295 295 295 295 295 296 297 299 299 300 300 301 301 302 302 304 305 306 305 305 305 306 307 309 311 314 318 323 328 328 327 327 327 326 326 326 326 327 328 328 329 329 329 329 328 328 328 329 329 329 329 329 329 328 327 326 326 327 324 321 320 321 322 322 320 320 319 313
294 294 294 294 294 294 294 294 294 294 294 294 294 294 295 295 295 295 295 295 295 295 295 296 297 298 298 299 299 299 300 301 303 303 303 303 303 303 303 304 305 306 308 311 316 323 328 328 327 327 326 326 325 325 326 327 327 328 328 328 328 328 327 327 327 328 329 329 329 329 328 327 327 326 327 325 322 320 321 321 321 320 319 320 315
294 293 293 294 294 294 294 294 294 294 294 294 294 294 294 294 295 295 295 295 295 295 295 295 296 297 298 298 298 298 299 301 301 301 301 301 301 301 301 301 301 301 303 306 310 316 323 327 327 327 326 326 325 325 325 326 327 328 328 328 327 327 327 326 326 326 327 328 328 329 328 328 327 327 327 326 323 320 320 320 320 320 319 320 318
293 293 293 293 293 293 293 294 294 294 294 294 294 294 294 294 294 294 294 294 294 295 294 295 295 296 297 297 297 298 299 300 300 300 300 300 299 299 299 299 299 299 300 303 306 310 317 324 327 327 326 326 325 325 326 326 326 327 327 327 326 325 326 326 326 326 326 326 326 327 328 327 326 326 326 325 323 320 320 320 319 320 320 319 319
293 293 293 293 293 293 293 293 293 294 294 294 294 294 294 294 294 294 294 294 294 294 294 294 294 295 296 296 297 297 298 298 298 298 298 298 297 297 297 297 297 298 298 300 302 306 312 319 325 327 326 326 325 325 325 325 326 327 327 327 326 325 325 324 325 326 326 325 325 325 326 325 324 324 326 324 322 320 320 319 319 319 319 319 319
293 293 293 292 293 293 293 293 293 293 294 294 294 294 294 294 293 294 294 294 294 294 294 294 294 294 295 296 296 297 297 297 298 298 297 296 296 296 295 295 295 296 297 298 300 303 307 313 320 325 326 326 325 325 325 325 326 326 326 326 326 325 324 322 322 323 324 324 323 322 323 324 323 323 325 323 320 320 321 320 319 319 319 320 320
294 293 293 293 293 293 293 293 293 293 293 294 294 294 294 293 293 293 293 293 294 294 294 293 293 294 294 295 296 296 296 297 297 297 296 295 295 295 296 296 296 296 296 297 299 301 304 308 315 321 325 326 325 325 325 325 325 325 325 325 325 324 323 320 319 320 322 322 321 320 320 322 322 322 324 321 318 319 320 320 320 319 319 320 320
294 293 293 293 293 293 293 293 293 293 293 294 294 294 294 293 293 293 293 293 293 293 293 293 293 293 294 294 295 295 296 296 297 296 295 295 294 295 297 298 298 298 297 297 298 299 301 304 309 315 322 325 325 325 325 325 324 324 325 325 324 324 323 321 320 320 321 322 321 319 318 320 321 321 322 320 318 318 319 319 320 320 320 320 319
294 293 293 293 293 293 293 293 292 292 293 294 294 294 293 293 293 293 293 293 293 293 293 293 293 293 293 293 294 295 295 296 295 295 294 294 293 294 296 297 298 299 298 298 298 299 300 302 305 309 315 321 325 325 325 325 325 324 324 324 324 324 323 322 321 321 322 321 320 319 319 319 319 319 320 319 318 318 318 318 320 320 320 320 319
294 293 293 293 293 293 293 292 292 292 293 294 294 293 293 293 293 293 293 293 293 293 293 293 293 293 293 293 293 294 294 294 294 294 293 293 293 293 294 295 296 298 298 299 299 299 300 302 304 307 312 316 321 324 325 325 325 324 324 324 324 323 323 323 322 322 322 321 321 319 319 318 318 318 319 318 318 318 318 317 319 320 320 320 319
293 293 293 293 293 293 292 292 292 292 293 294 293 293 293 293 293 293 293 293 293 293 293 293 293 292 292 292 293 293 293 293 293 293 292 292 292 293 293 294 295 296 297 298 299 299 300 301 303 306 310 314 317 321 324 325 324 324 325 324 324 324 323 323 323 322 321 320 320 320 320 318 317 317 318 318 317 317 317 317 318 319 320 320 319
293 293 293 293 293 292 292 292 292 292 293 294 293 293 293 294 293 293 293 293 292 292 293 293 292 292 291 292 293 293 292 292 292 292 292 292 292 292 293 294 294 295 296 298 299 299 299 300 301 303 306 311 314 318 322 324 324 324 324 324 324 324 323 322 321 320 319 319 318 320 320 317 316 317 317 317 317 316 316 317 317 319 319 319 318
293 293 293 293 292 292 292 292 292 292 293 294 293 293 293 294 294 293 293 292 292 292 292 292 292 291 291 292 292 292 292 292 292 292 292 292 292 292 293 293 294 294 295 297 297 298 299 299 300 303 306 309 312 315 319 322 324 324 324 323 323 323 322 322 320 318 318 318 317 319 319 316 315 316 315 315 316 316 315 315 316 317 318 318 318
293 293 293 293 292 292 292 292 292 292 293 294 293 293 293 294 294 293 293 292 292 292 292 292 291 291 291 291 292 292 291 291 292 292 292 292 292 292 293 293 294 294 295 295 296 297 300 301 301 304 307 310 313 315 318 321 323 324 324 323 323 322 321 322 320 316 315 316 316 318 318 314 313 314 312 311 312 313 314 314 315 315 316 316 317
294 294 293 293 293 292 292 292 292 293 293 293 293 293 293 294 293 293 292 292 291 291 291 291 291 291 290 291 291 291 291 291 292 292 292 292 291 292 292 293 293 293 294 294 295 296 299 302 303 304 307 311 314 317 319 321 322 323 324 324 324 322 321 321 319 316 314 314 315 317 316 312 311 311 310 309 308 307 309 312 314 314 314 314 315
Wind_Speed
9 10 10 9 9 9 8 9 10 9 9 8 7 7 6 5 3 4 7 9 10 9 8 9 11 12 13 13 13 13 13 12 12 13 13 12 11 9 7 7 7 8 7 8 9 9 8 7 7 5 6 6 6 6 6 6 6 6 6 5 5 4 4 5 5 6 6 6 8 8 8 9 11 10 9 10 11 9 7 6 6 9 12 12 12
11 12 12 12 11 10 10 10 10 10 11 10 8 8 8 8 7 6 6 8 9 10 10 12 13 13 14 14 14 13 13 12 12 13 13 14 13 11 10 9 8 9 9 9 10 10 9 8 8 7 7 6 7 7 7 7 6 7 6 6 6 5 5 5 5 6 6 7 9 8 7 9 10 11 11 10 10 9 7 7 6 7 11 12 11
13 14 14 14 12 12 12 11 11 10 12 12 10 9 9 9 10 10 9 9 10 11 12 14 14 15 16 15 14 14 13 12 11 13 14 15 15 14 12 11 10 10 10 10 11 11 11 9 8 8 7 7 7 8 8 8 8 8 7 7 7 6 5 5 5 5 6 8 9 8 7 8 9 11 12 11 9 8 8 8 7 7 9 10 10
12 13 13 13 13 13 12 12 12 10 11 12 12 11 10 10 10 11 12 12 12 13 14 15 16 17 17 17 16 16 15 13 11 13 15 16 16 16 14 13 12 11 11 11 11 12 12 10 9 9 9 8 8 9 9 9 9 9 8 8 8 7 6 5 6 6 6 6 8 8 7 7 8 10 11 12 10 8 7 8 8 7 7 8 9
12 12 12 13 13 13 13 13 12 11 11 11 11 12 12 12 11 11 12 13 14 14 15 16 17 18 18 18 18 18 17 15 14 13 15 17 18 17 16 15 14 13 14 14 13 13 12 12 10 9 10 10 9 9 10 9 10 10 9 9 8 8 8 7 7 7 7 6 7 8 8 7 7 9 9 11 11 10 8 8 9 8 7 8 8
12 12 12 12 12 12 12 12 12 12 12 11 10 10 12 13 13 13 14 14 15 16 17 17 17 18 19 19 19 18 17 16 16 16 16 17 18 19 18 17 16 15 16 17 16 14 13 13 11 10 10 11 11 11 11 10 11 11 10 10 9 9 9 8 8 8 7 7 8 8 8 8 7 8 8 10 11 11 10 9 8 8 8 7 7
11 11 11 11 11 11 11 11 12 12 12 11 10 10 10 12 13 14 16 16 17 18 18 19 18 19 20 19 18 18 18 18 17 17 17 18 20 20 19 19 19 17 17 19 20 17 14 13 13 12 11 12 13 12 11 12 12 12 11 11 10 10 9 8 8 9 9 9 9 9 8 8 8 7 8 10 11 11 11 10 9 10 10 10 10
11 11 11 10 10 10 10 10 11 12 12 12 11 11 12 12 12 13 15 16 17 18 19 18 17 19 21 20 18 18 19 19 19 18 17 18 20 21 20 20 21 20 18 20 24 21 16 14 15 14 12 13 15 13 12 13 13 13 13 12 11 11 11 9 8 9 11 10 9 9 9 9 9 8 8 9 11 11 12 12 13 13 13 14 15
10 10 9 8 8 9 9 9 10 11 12 12 12 12 13 14 13 12 14 15 17 18 18 17 17 19 22 21 19 19 20 20 21 20 19 19 20 21 22 21 22 22 20 19 23 25 19 15 16 16 15 17 18 14 13 15 14 14 13 12 12 12 12 11 9 9 12 11 10 10 10 10 10 9 9 9 11 12 12 13 14 14 14 14 15
10 9 7 6 6 6 7 7 8 9 10 11 12 13 13 13 13 13 14 15 16 17 17 17 17 18 21 21 20 20 21 21 21 21 21 21 21 21 22 22 24 25 23 19 20 25 23 18 17 18 18 19 19 16 14 16 16 15 15 13 13 13 13 13 12 10 12 12 12 11 11 10 10 11 11 10 11 12 12 13 13 13 13 13 13
10 10 9 8 7 7 6 7 7 8 9 11 12 12 12 13 14 14 15 15 16 17 17 17 16 17 19 20 21 21 22 21 21 22 23 24 23 23 23 24 25 26 26 22 21 25 25 20 19 20 20 20 19 17 16 17 17 17 17 15 15 15 14 14 14 13 13 14 14 12 12 12 11 12 13 11 11 12 13 13 13 13 13 14 14
12 12 12 10 9 9 9 9 9 9 10 10 11 12 13 13 14 14 15 16 17 16 16 16 17 18 19 20 21 22 23 22 22 24 25 27 26 25 25 25 27 28 28 26 24 25 24 22 21 21 21 20 19 18 17 18 19 18 19 18 17 16 16 16 16 16 14 14 15 14 14 15 13 13 14 13 11 11 14 15 14 14 14 14 14
13 13 12 10 8 8 9 9 9 8 8 9 10 12 12 12 13 14 15 16 16 15 15 15 14 14 15 16 19 21 23 24 24 25 27 28 28 27 27 26 27 28 29 28 27 26 24 23 22 22 22 20 20 19 18 19 21 21 20 19 18 18 18 19 19 18 15 13 15 16 17 17 15 14 14 13 12 12 15 16 15 15 15 15 14
12 13 12 11 10 9 8 8 8 8 7 8 9 11 11 11 11 14 14 14 14 14 14 13 9 9 11 11 13 17 19 21 24 27 28 29 29 29 29 28 28 28 29 29 28 27 26 25 24 24 23 22 21 19 19 21 23 23 23 21 19 19 19 21 20 20 19 15 14 16 18 19 17 16 15 14 13 12 14 17 16 16 16 15 14
12 12 11 11 10 10 9 9 9 9 9 10 11 12 13 12 11 12 13 14 14 14 14 11 10 11 10 5 4 6 8 12 19 25 27 28 29 30 30 30 29 29 29 30 30 29 28 27 26 26 25 23 22 21 20 22 24 25 24 23 21 20 21 22 21 20 21 18 14 15 18 19 18 16 15 14 14 12 13 16 17 16 16 15 14
13 12 12 11 11 10 11 10 11 11 12 13 14 15 15 14 12 11 11 13 13 13 13 12 11 11 7 2 1 3 4 4 9 16 20 24 28 30 31 31 30 29 30 31 32 32 31 30 28 27 27 25 23 22 21 21 24 25 24 24 23 22 21 21 21 20 21 20 17 16 18 19 19 17 15 15 14 13 13 15 17 17 16 15 14
14 13 13 12 12 12 12 12 12 12 13 14 14 15 15 15 14 13 12 12 14 14 14 13 12 11 9 6 3 3 3 3 5 9 11 16 23 27 29 31 31 30 31 33 33 33 32 32 31 29 29 27 24 23 23 22 23 25 25 24 23 23 21 20 20 20 20 22 20 18 18 18 19 18 16 15 15 14 15 16 16 17 16 15 14
13 13 13 12 12 12 12 12 13 12 13 13 14 14 15 15 14 14 13 12 14 15 15 16 15 13 13 12 11 10 9 8 6 4 6 12 17 21 25 29 30 29 30 33 33 34 34 32 32 32 31 29 26 24 24 23 24 25 26 25 24 23 22 20 19 19 19 22 23 19 18 19 20 20 17 17 16 15 17 17 17 17 16 14 13
12 13 12 12 12 12 12 12 12 12 12 12 13 13 14 15 14 13 13 14 15 15 16 19 16 13 13 15 17 19 18 15 9 5 6 8 12 16 20 24 27 26 29 32 32 33 34 33 32 33 32 30 28 27 26 25 25 26 26 25 24 24 23 21 19 19 18 19 23 21 19 19 21 21 19 18 16 15 17 18 17 16 15 14 12
11 12 13 13 13 13 13 12 12 12 13 12 12 12 13 14 15 15 14 14 15 15 18 19 15 13 15 15 16 18 20 21 20 15 8 5 8 11 16 21 24 25 28 31 32 32 33 33 33 33 32 31 30 29 28 26 26 27 27 26 25 25 24 23 20 19 17 16 22 24 21 20 21 21 21 19 18 17 17 18 18 16 15 14 11
11 11 12 13 13 13 14 14 13 13 14 14 13 13 13 13 14 15 15 15 14 14 16 17 16 18 18 16 15 16 19 20 23 21 13 9 8 7 10 14 17 23 27 28 30 31 32 33 33 32 32 31 32 31 29 28 27 28 27 27 26 25 25 24 21 19 17 16 20 25 23 20 21 21 21 21 20 19 18 19 19 17 15 13 11
11 11 12 12 12 13 14 14 13 13 14 15 15 15 15 15 14 14 14 15 15 14 15 16 17 19 19 17 16 18 17 13 13 16 14 12 10 8 10 10 10 16 24 26 28 30 31 31 31 32 32 32 32 32 31 30 29 29 28 27 27 26 25 25 23 21 19 17 18 23 24 21 21 21 20 20 20 21 20 19 19 18 16 14 12
12 12 13 13 12 12 13 12 12 14 15 16 17 17 17 16 15 15 14 15 15 15 15 16 16 17 18 18 19 20 18 13 12 15 13 11 9 8 10 13 12 14 18 21 25 27 29 30 31 33 34 34 34 33 32 32 31 29 29 28 27 27 26 25 24 22 21 19 18 22 25 23 22 21 21 21 20 20 20 20 20 19 17 15 14
13 14 15 14 13 13 13 12 13 15 16 16 17 18 18 17 17 17 17 17 16 17 17 17 18 19 19 18 19 20 20 19 20 21 19 17 13 7 9 13 11 13 16 16 19 23 27 29 32 33 34 34 35 34 33 33 32 30 29 29 28 27 27 26 24 23 22 21 19 22 26 24 23 22 21 21 21 20 21 21 21 20 19 18 17
15 16 16 16 15 14 14 14 16 17 17 18 19 19 19 19 19 19 19 19 18 19 19 19 20 20 21 20 20 20 21 22 22 23 24 23 17 10 11 12 8 10 15 15 16 19 23 28 31 32 33 35 35 35 34 34 34 32 30 30 29 28 28 27 26 24 23 22 21 23 26 25 24 24 23 22 21 21 22 22 23 22 21 20 19
16 16 15 15 14 14 15 16 17 18 18 18 19 20 20 21 21 22 21 21 20 19 19 19 20 20 21 22 22 22 23 23 23 24 23 22 18 13 11 10 10 11 12 13 15 14 17 23 28 30 33 35 36 35 35 35 35 33 31 31 31 30 29 28 27 25 25 24 23 26 28 26 26 26 24 22 21 22 23 23 23 23 23 22 22
16 15 14 14 15 15 16 18 18 18 18 19 18 18 19 20 20 21 22 22 22 21 20 20 19 20 20 21 22 22 23 24 24 24 24 23 22 20 15 7 7 8 8 10 12 14 18 20 22 27 31 33 36 36 36 37 36 35 33 32 32 32 31 30 28 27 26 26 26 29 30 28 27 26 26 24 22 23 24 23 24 25 24 23 23
16 16 15 16 17 18 20 21 21 21 22 22 22 22 21 21 21 21 21 20 21 21 21 21 21 21 20 20 21 21 22 24 25 24 25 25 24 24 20 12 6 5 5 6 7 13 21 20 18 24 28 30 33 36 36 37 38 36 34 33 33 33 32 31 30 28 28 28 28 31 32 31 28 27 27 27 25 24 25 24 25 27 27 25 24
19 19 18 18 19 21 23 24 24 25 25 25 26 26 25 26 25 25 24 22 21 21 21 21 22 22 22 21 20 21 22 22 23 24 24 25 25 24 23 20 14 6 4 6 5 7 16 20 20 22 26 28 30 33 35 37 39 38 36 35 35 35 34 32 31 30 29 29 30 32 35 34 31 29 29 30 28 26 25 25 25 27 28 26 24
22 22 22 22 23 24 26 27 27 27 28 28 28 28 28 28 27 26 25 24 24 24 24 23 23 22 22 22 21 22 23 23 23 23 23 24 25 24 24 24 23 15 8 7 7 9 14 18 22 24 24 26 28 30 34 37 39 39 38 37 37 36 35 34 33 32 31 31 31 33 36 36 33 31 31 32 31 28 27 26 25 27 28 26 25
24 24 24 24 25 26 27 28 29 29 30 31 31 30 30 30 29 27 24 24 24 25 25 24 23 21 21 22 22 22 23 24 25 24 23 23 25 25 24 24 25 25 20 11 6 11 16 17 21 25 25 25 26 29 33 36 38 39 39 39 38 37 35 34 34 33 32 32 32 33 37 38 36 34 33 33 33 31 29 27 25 26 28 28 27
24 25 25 25 25 26 28 30 31 31 32 33 33 33 32 31 30 27 24 23 23 23 23 24 24 23 22 21 21 22 23 23 24 26 26 25 25 25 24 23 24 26 27 19 8 10 19 21 21 24 25 26 26 28 32 35 36 37 39 40 39 38 37 36 35 34 33 33 34 34 36 40 39 37 35 34 35 34 31 29 27 26 27 29 30
25 26 26 26 26 26 28 30 31 32 33 34 34 34 34 33 31 28 26 26 23 21 21 22 22 22 23 22 22 24 25 24 24 26 26 26 25 25 25 24 25 25 26 22 13 11 19 24 23 25 25 24 25 28 31 34 34 35 37 39 39 40 40 38 36 36 35 34 35 35 36 40 41 39 38 36 36 36 34 31 29 27 27 29 31
26 27 27 27 27 27 28 29 31 32 34 34 35 35 35 34 32 30 30 29 26 23 22 22 21 19 20 23 25 27 27 25 25 24 24 25 26 26 26 25 24 25 26 26 20 13 16 22 24 26 27 25 26 28 30 33 34 34 36 38 39 41 41 41 38 38 37 36 36 36 37 40 42 41 40 38 37 37 37 34 31 29 27 28 30
27 27 27 28 28 28 28 29 31 32 34 35 35 36 35 34 31 30 30 31 28 25 23 23 22 21 21 22 25 27 27 26 25 24 24 26 26 27 28 28 27 26 25 26 25 17 16 21 23 25 27 27 27 29 31 33 34 34 35 39 42 43 43 42 41 40 38 37 37 36 37 39 42 43 42 40 39 39 38 37 33 31 29 28 29
28 28 28 29 29 29 29 29 31 32 33 35 36 36 35 34 31 30 31 31 29 25 23 23 22 22 23 23 24 26 26 25 24 24 25 27 27 27 27 28 29 30 29 26 27 24 20 20 22 25 28 28 28 30 31 32 33 34 36 40 41 41 42 43 42 41 39 38 38 37 37 39 42 44 43 41 40 40 39 38 35 33 31 29 29
28 28 29 29 29 30 30 29 30 32 33 35 37 37 37 35 33 31 32 32 30 27 23 22 22 22 22 23 24 25 25 25 25 25 26 28 29 28 28 29 28 29 30 29 28 28 26 23 23 25 27 28 29 30 32 31 31 33 35 38 38 36 38 41 42 42 40 38 38 38 37 38 41 44 44 43 42 41 40 40 38 35 33 30 29
28 28 29 29 29 30 29 29 30 31 33 35 37 38 38 36 34 33 33 32 32 30 26 22 21 21 21 22 24 24 23 24 26 27 27 28 30 30 29 29 30 30 30 30 30 29 28 28 26 25 25 27 28 29 32 33 32 30 31 34 35 33 35 37 38 39 39 39 40 40 39 40 42 44 45 44 43 42 42 41 39 37 34 32 30
29 29 29 30 30 30 30 30 30 31 33 35 37 38 38 37 34 32 32 32 32 32 29 25 22 21 21 22 23 23 23 24 26 27 27 28 29 29 28 29 30 31 30 30 30 29 27 26 26 25 25 27 29 29 31 33 33 33 32 31 29 28 31 35 36 37 38 39 40 41 41 41 42 44 45 44 44 44 43 42 41 38 36 34 31
29 29 30 30 30 30 30 30 30 31 32 35 37 38 38 38 35 32 31 30 30 31 31 30 26 22 21 22 22 23 23 24 24 25 27 28 29 29 29 30 31 30 29 29 29 28 28 25 23 24 24 25 27 28 27 28 29 29 31 33 30 28 30 35 39 40 39 38 39 41 42 42 42 44 45 44 45 45 44 42 42 40 37 35 33
28 28 29 29 30 30 30 31 31 31 31 33 35 37 38 38 35 32 30 29 28 29 30 32 30 24 21 22 23 23 24 24 24 26 28 28 28 28 30 32 32 31 29 28 28 27 26 24 22 22 21 21 23 24 24 27 29 28 29 32 32 31 33 35 37 40 41 40 40 41 43 43 43 45 47 46 45 46 45 43 42 41 39 37 35
26 27 28 29 30 30 30 31 31 31 31 32 33 34 36 37 35 33 31 30 29 29 29 31 30 25 22 23 24 25 26 25 25 29 31 31 30 32 34 32 30 30 30 29 29 27 25 23 22 20 17 17 21 25 26 28 31 30 30 30 28 28 30 26 24 31 37 38 37 38 42 43 44 45 47 47 47 46 45 44 44 43 41 39 36
24 25 27 29 30 30 30 31 31 31 31 32 33 34 36 37 35 33 32 31 30 29 29 29 28 24 23 23 24 25 25 25 28 30 31 32 36 39 40 37 33 29 28 29 29 28 25 23 24 23 18 18 22 26 27 28 30 30 31 31 27 26 25 18 13 18 30 35 33 32 35 40 43 46 47 48 48 48 47 47 46 44 41 40 38
22 24 25 27 28 29 30 30 30 30 31 31 32 33 35 37 36 33 32 32 31 31 31 30 28 25 24 24 24 24 24 26 29 30 30 34 38 40 41 42 40 34 28 27 28 29 29 27 26 25 22 21 23 26 29 29 30 31 31 31 30 29 25 21 17 20 31 39 36 31 33 38 41 44 48 50 50 49 48 48 47 44 42 41 40
21 22 23 24 25 27 28 30 30 30 30 31 31 33 36 37 36 34 33 33 32 32 32 32 30 27 25 24 24 23 24 27 29 29 32 38 41 41 41 42 43 42 37 32 29 30 31 31 31 30 28 25 24 27 31 32 31 30 30 30 31 30 27 25 26 27 32 39 39 31 30 37 41 43 47 50 51 49 47 47 48 46 44 42 40
21 21 22 23 24 25 27 29 30 30 30 30 32 34 36 38 37 36 35 34 34 34 33 33 31 29 26 26 25 25 27 28 29 31 36 40 42 42 41 39 40 42 42 40 37 32 30 30 32 35 34 31 29 29 31 34 34 34 33 33 33 32 31 30 32 32 33 40 42 31 22 30 40 42 44 47 47 46 45 46 48 47 45 44 42
20 20 21 22 24 25 27 28 30 30 29 30 32 34 35 37 37 37 36 35 35 36 35 34 33 31 28 26 26 27 29 29 31 35 39 40 40 40 38 36 37 39 41 43 41 38 34 32 32 35 37 37 35 32 31 33 36 39 39 37 36 36 34 31 30 30 30 36 42 32 18 24 38 40 38 40 41 42 42 44 47 48 46 44 42
22 22 22 23 24 26 28 29 30 30 29 29 32 34 34 35 37 38 36 36 37 37 36 34 32 30 28 27 27 29 29 31 35 40 41 38 37 37 35 35 36 37 40 43 42 38 37 36 36 35 35 38 38 34 32 32 34 38 38 33 31 32 29 23 22 25 27 32 40 37 23 22 34 37 33 34 36 37 39 42 45 47 47 45 42
23 23 24 24 26 28 29 30 30 30 29 30 32 33 34 34 36 37 36 36 36 35 36 34 30 29 29 28 28 30 31 34 39 42 41 38 36 36 34 35 35 34 39 45 44 40 39 38 38 37 34 35 38 37 34 31 32 37 34 28 28 29 24 16 14 19 25 30 39 41 28 22 31 34 28 29 34 36 36 38 41 41 42 43 42
23 23 24 26 27 29 30 30 29 29 30 31 32 33 34 34 35 35 34 33 32 30 32 32 31 31 30 30 31 32 34 38 41 42 41 38 37 36 35 35 35 34 38 44 45 45 46 44 41 37 32 30 33 36 36 32 32 36 35 32 32 30 24 18 14 15 19 27 40 42 28 21 29 32 26 21 23 29 33 34 37 37 37 39 40
22 23 25 27 28 30 30 30 29 29 30 31 32 33 34 35 35 34 33 31 30 28 28 29 29 30 31 34 37 38 39 42 42 42 41 40 38 36 35 35 34 36 42 46 44 45 47 47 44 39 32 27 28 32 35 33 32 35 40 40 36 32 29 26 20 14 10 17 36 42 29 22 29 33 29 20 10 13 24 30 33 36 35 35 37
Wind_Direction
316 318 320 321 320 316 315 313 317 325 329 319 291 276 277 280 271 228 212 211 217 225 247 275 292 304 312 313 313 314 305 286 271 266 264 260 257 255 242 229 228 224 224 212 207 214 209 201 206 213 216 206 197 196 186 186 186 177 180 180 172 166 159 145 139 136 122 129 129 114 113 109 105 114 131 148 155 148 130 126 119 102 107 114 112
316 316 315 312 310 309 309 309 309 313 321 327 319 298 289 285 284 277 257 245 247 257 271 280 287 297 307 310 311 315 314 295 272 261 258 256 254 252 242 233 229 228 223 215 212 215 214 209 206 218 215 202 204 202 195 196 191 186 186 185 179 174 165 152 149 140 127 135 134 123 124 119 110 110 116 132 153 160 145 131 128 114 108 109 113
317 317 316 312 308 303 306 308 306 309 314 316 320 315 307 297 291 287 281 273 268 274 287 292 292 298 305 308 307 309 311 303 278 258 252 252 251 250 243 236 232 231 225 219 219 217 216 213 207 217 216 207 211 204 198 198 193 191 190 189 186 180 172 160 160 153 142 141 138 132 128 124 120 116 113 115 131 157 162 144 133 127 113 107 112
318 318 317 314 310 304 304 306 307 311 311 308 307 307 307 305 298 291 285 281 276 276 286 294 298 303 306 303 299 300 302 300 284 259 248 245 246 247 243 238 235 232 229 227 227 221 218 218 209 209 215 213 214 210 203 199 195 193 193 194 193 193 193 182 176 172 163 155 150 144 137 133 127 121 117 110 112 133 158 157 147 135 123 115 114
317 316 314 314 313 310 308 309 312 311 307 303 300 299 299 299 298 295 289 285 282 280 284 290 296 301 301 298 295 296 296 295 290 274 255 245 243 243 241 238 237 235 232 232 234 229 222 220 211 204 210 210 214 215 207 203 199 196 197 198 197 199 197 190 186 183 174 170 165 151 145 148 134 124 123 114 107 111 129 151 157 151 139 128 120
324 317 310 311 310 310 309 310 314 311 308 310 308 302 297 295 295 293 292 290 288 288 289 291 295 296 294 293 292 290 288 287 287 282 268 255 246 241 239 237 237 237 236 235 236 234 231 224 211 208 212 209 212 214 210 207 201 198 199 199 200 201 196 195 196 192 182 175 175 164 155 158 147 133 128 122 114 111 119 135 151 155 149 143 138
341 331 319 315 313 312 310 309 311 309 311 316 317 314 307 300 297 295 293 292 291 291 293 295 296 294 291 290 288 285 284 283 282 278 271 261 250 242 239 237 237 237 237 240 240 237 235 229 214 209 210 209 212 213 210 210 205 201 202 201 201 200 199 203 205 197 188 180 179 174 166 168 162 149 138 130 125 122 122 127 139 144 141 139 135
353 347 338 329 325 325 323 319 315 313 314 314 315 317 316 309 304 300 296 295 294 293 293 297 300 300 295 289 283 281 281 282 282 279 271 261 251 244 240 238 239 237 234 239 244 241 234 229 222 212 207 211 218 216 211 211 208 204 203 201 200 202 204 209 214 202 191 184 180 175 173 175 170 161 155 143 135 132 126 126 131 131 126 122 119
355 355 354 346 335 331 329 327 321 319 317 313 314 316 316 313 311 310 304 302 301 297 297 300 299 296 291 286 280 277 277 279 281 279 270 261 254 245 240 240 240 237 232 231 240 243 237 228 226 218 212 218 225 225 215 210 210 208 205 202 203 207 209 209 213 202 190 187 183 184 181 175 170 169 172 159 143 138 134 133 133 131 127 122 120
2 8 16 11 355 340 332 330 326 324 322 318 319 318 316 317 318 319 315 310 305 303 303 300 294 287 283 282 278 274 274 276 276 274 267 261 256 246 241 242 242 238 234 230 232 238 237 230 226 222 221 225 230 232 219 209 211 212 207 208 208 210 212 210 211 201 192 190 185 191 190 176 171 173 177 170 153 147 143 142 140 138 136 132 129
13 19 28 29 23 12 2 358 349 343 339 334 333 330 327 326 324 325 323 316 311 309 304 298 294 286 278 275 274 273 273 273 270 269 265 261 256 250 245 243 243 239 235 233 230 232 235 232 228 226 228 230 233 234 222 209 212 214 211 213 213 211 213 211 208 201 196 193 185 190 193 183 177 175 177 173 162 158 153 149 147 144 139 134 132
18 22 29 30 21 12 5 1 353 346 342 340 338 335 330 322 319 321 319 315 312 311 309 307 302 294 285 279 277 274 271 268 265 263 262 260 256 252 247 242 242 239 234 233 231 230 231 230 229 228 231 233 232 234 226 210 210 216 214 215 215 213 213 213 209 201 196 190 184 192 196 188 181 176 175 173 169 167 161 157 154 150 144 138 137
31 35 40 38 26 17 8 0 353 345 338 333 329 328 325 318 316 318 317 314 313 316 319 315 307 300 298 296 290 282 273 265 261 261 259 259 256 252 247 241 241 238 233 231 231 230 230 228 229 229 232 234 231 233 229 214 210 216 216 215 217 217 215 217 213 203 196 187 183 191 194 187 181 176 175 174 176 177 169 165 162 157 152 147 145
44 46 46 42 36 30 20 9 1 352 342 336 334 334 333 331 330 327 326 321 317 324 325 313 297 293 301 304 298 289 277 265 261 261 258 256 255 251 247 242 241 238 232 231 231 231 230 228 228 229 232 234 232 231 230 220 212 215 216 214 218 221 221 223 219 207 198 190 184 186 187 185 182 178 177 178 180 180 174 171 169 165 160 155 152
48 48 45 42 38 35 28 21 13 5 358 352 351 350 346 343 336 331 330 323 316 321 325 312 288 286 291 291 295 297 284 265 259 260 259 255 253 251 247 244 241 237 232 232 232 232 231 229 227 229 231 233 234 232 231 225 217 217 218 214 215 220 226 229 225 215 203 194 188 183 182 184 183 178 179 181 181 181 177 175 174 171 165 160 158
44 43 41 40 38 35 30 25 19 12 4 360 357 355 352 347 342 339 336 325 317 316 318 311 295 286 282 264 269 282 281 268 264 270 267 258 254 251 247 244 242 237 233 233 233 233 232 229 227 228 230 232 234 234 233 228 222 222 222 218 215 218 227 232 231 226 211 197 191 185 182 185 183 179 181 183 182 181 176 174 174 171 167 164 161
39 37 36 35 34 30 24 19 16 9 4 1 357 354 351 349 347 346 342 331 320 311 306 306 299 286 275 271 286 280 281 322 302 287 274 261 257 254 249 245 242 236 234 235 235 236 235 231 229 229 229 230 232 235 235 232 225 224 226 223 218 218 225 231 232 235 223 202 194 189 186 187 183 181 184 182 182 184 178 172 171 171 168 166 166
38 35 32 31 31 26 18 13 10 9 9 5 359 355 348 343 344 341 339 335 322 306 300 306 305 293 280 270 266 262 269 293 303 296 282 270 261 256 252 247 242 236 235 236 236 236 237 233 230 230 230 229 231 234 235 234 229 226 226 225 221 219 221 227 231 239 233 209 196 191 188 188 185 183 186 185 183 182 179 175 173 175 174 172 178
37 37 34 33 32 26 18 12 10 13 13 7 2 359 349 343 343 338 333 332 322 307 303 306 304 298 291 278 267 262 264 272 275 282 295 276 255 253 255 250 243 236 235 238 236 235 237 235 231 231 231 230 230 233 234 235 233 230 228 226 223 221 221 226 231 237 238 216 200 194 190 190 188 186 187 188 185 177 179 181 178 182 182 177 191
33 34 34 34 29 24 20 13 11 12 11 8 5 2 354 346 344 340 334 331 326 316 309 306 300 298 298 289 280 273 268 268 266 265 273 282 267 260 258 254 247 239 235 237 237 236 237 237 233 229 230 231 231 232 232 233 234 233 231 227 223 222 222 226 231 234 239 226 206 198 193 191 190 189 188 189 187 179 179 183 182 187 183 179 200
26 26 27 28 23 17 14 9 8 10 9 8 4 2 360 352 346 342 337 334 331 325 318 312 307 304 297 288 288 286 277 271 266 261 255 261 271 264 256 252 247 243 239 235 235 236 236 238 237 231 228 231 232 232 232 232 233 233 232 229 224 222 223 226 230 233 236 234 217 203 196 193 190 190 189 189 190 186 184 184 184 187 182 186 207
19 19 18 19 16 9 5 3 3 5 4 1 357 357 356 351 346 343 342 341 338 335 330 321 316 311 302 293 293 290 281 271 264 260 253 251 257 263 258 244 235 244 243 236 234 234 234 236 236 233 231 231 232 234 233 231 232 233 232 230 226 222 223 225 229 233 233 239 229 208 199 198 194 193 192 190 190 190 188 187 188 189 186 192 203
13 12 11 11 9 7 3 358 356 358 358 356 356 356 353 347 344 344 345 345 340 337 333 326 323 316 308 303 300 295 287 282 282 277 266 254 254 262 256 244 238 244 244 241 238 235 235 234 234 234 234 234 234 235 235 232 231 233 233 231 228 224 223 224 228 232 231 236 232 208 199 202 201 199 197 192 191 192 190 191 195 196 194 194 195
13 10 10 8 5 5 3 356 354 356 355 353 352 351 349 346 345 345 344 343 339 338 336 332 329 322 314 310 308 307 302 297 295 289 280 272 265 264 260 251 243 245 248 247 243 238 236 235 236 236 235 235 235 235 236 234 232 233 233 232 230 226 224 224 227 230 228 232 229 208 201 205 205 204 200 194 194 194 193 194 196 197 198 197 192
19 17 15 11 9 10 11 7 3 0 355 351 347 345 344 343 343 342 340 340 338 337 335 330 328 323 318 314 310 310 310 307 302 295 289 280 268 262 263 254 245 255 254 246 244 243 239 237 238 237 236 236 236 236 236 235 233 233 233 233 231 228 226 225 226 228 226 227 224 209 204 208 209 208 204 198 197 196 195 194 192 193 196 195 190
27 23 19 16 18 21 22 17 11 5 358 351 346 343 341 338 337 336 334 334 332 332 332 328 323 318 317 318 315 309 307 308 308 303 296 282 264 255 257 251 245 253 256 245 239 238 238 238 238 237 236 235 236 236 236 235 234 234 233 233 233 230 228 226 226 226 224 224 219 207 206 211 212 210 205 201 201 197 197 196 190 192 198 194 189
33 31 28 28 31 32 30 24 19 17 13 8 2 358 352 345 339 334 328 324 323 322 322 322 321 318 316 317 316 312 308 307 308 306 300 288 271 257 251 245 244 246 246 245 237 235 241 243 241 239 236 234 234 234 235 235 235 234 234 234 234 232 230 228 226 224 222 222 217 208 208 213 215 213 207 204 205 201 200 200 192 192 199 199 191
40 37 38 41 43 41 37 33 31 30 27 24 21 17 12 7 1 354 345 335 328 324 321 317 315 315 315 316 317 315 313 310 307 306 303 296 283 268 255 242 241 247 239 242 238 242 246 244 243 244 239 235 234 233 233 235 235 235 234 234 234 233 231 229 227 224 221 221 218 211 210 213 215 215 211 207 209 205 203 204 197 194 200 202 195
46 45 45 48 48 44 38 33 33 32 29 26 23 19 17 15 12 9 5 358 350 344 338 331 325 320 316 315 316 314 314 315 312 310 307 300 290 278 263 250 244 243 245 248 234 238 245 238 236 243 242 238 237 234 231 232 235 235 234 234 234 233 232 229 227 225 221 220 219 213 211 213 214 215 214 210 210 209 207 209 204 199 202 202 196
53 51 48 48 45 40 36 33 32 31 28 26 22 19 17 15 13 11 10 7 2 358 355 349 342 337 328 321 317 312 312 316 317 315 311 305 296 283 269 257 249 240 240 255 243 237 243 235 234 241 242 240 239 236 232 232 234 234 232 233 233 233 232 230 227 225 222 220 219 216 212 213 213 214 214 213 212 211 210 213 212 205 203 199 195
53 51 48 45 41 37 35 33 31 31 28 25 22 19 17 14 12 11 9 5 1 359 359 356 350 345 340 334 328 322 317 317 320 319 315 311 304 292 277 262 252 244 240 245 252 246 241 235 238 243 243 243 242 238 235 235 233 232 232 233 233 233 232 231 228 225 223 220 219 217 214 213 213 213 214 214 213 212 211 214 217 212 206 200 196
50 49 47 44 40 37 34 31 30 29 27 24 22 19 17 14 12 9 5 360 355 352 352 355 353 348 345 342 337 333 328 323 321 322 320 316 312 302 287 270 260 253 245 240 243 251 245 242 245 247 245 245 244 238 235 235 233 231 232 233 233 233 233 232 229 225 223 221 219 219 215 213 213 213 215 215 214 213 213 214 217 216 212 204 199
50 48 46 43 40 36 34 31 29 27 25 23 20 18 16 14 13 10 6 1 355 347 345 347 348 346 344 342 340 339 337 329 325 326 325 322 320 313 300 284 269 260 251 244 243 252 252 249 247 249 249 244 240 239 236 233 231 229 230 231 232 232 231 231 229 225 223 221 219 219 216 214 213 214 215 216 214 213 214 215 216 218 217 210 203
52 49 46 43 41 38 34 31 28 26 25 22 20 18 16 14 12 11 7 4 358 350 346 343 341 340 339 336 337 340 340 334 329 329 328 328 326 321 314 307 291 273 259 250 246 248 253 250 245 246 248 241 235 237 236 232 231 229 227 228 228 229 230 230 229 226 223 221 220 219 216 214 214 214 216 216 214 214 214 215 216 218 220 216 208
53 50 46 43 41 38 35 31 27 25 23 21 19 18 16 13 11 9 7 6 1 353 348 344 342 340 337 334 334 337 337 333 331 330 331 332 332 327 323 322 315 301 281 260 250 247 252 252 245 242 244 239 233 235 236 234 233 229 226 229 229 227 227 228 228 227 223 220 219 218 217 215 214 215 216 217 216 215 215 215 215 217 220 220 214
52 49 46 43 40 37 34 30 27 24 22 20 18 18 16 14 11 9 7 6 2 355 348 345 343 342 340 338 336 337 335 333 332 333 334 334 333 332 328 324 322 316 306 286 263 251 251 255 249 242 241 240 235 235 235 232 230 227 228 232 230 224 223 225 226 226 225 221 219 218 217 216 215 215 216 217 217 215 215 215 215 217 219 221 218
51 48 45 42 39 37 34 30 27 25 22 19 17 17 16 14 13 11 8 6 3 358 351 346 345 343 342 340 338 338 337 336 335 335 336 336 334 333 330 327 323 319 316 308 288 265 250 249 254 247 240 238 237 236 235 230 226 225 227 231 228 221 220 223 224 225 225 222 219 218 218 217 216 216 216 217 217 216 215 215 215 216 218 220 220
50 47 45 43 40 38 35 32 29 26 23 20 18 16 15 13 13 12 9 7 5 2 356 348 344 342 340 339 339 339 339 337 336 335 335 335 334 332 330 328 327 323 318 314 308 289 260 247 250 250 239 233 232 232 232 229 224 221 221 225 226 221 217 217 219 221 222 222 219 217 216 216 216 216 217 218 218 216 214 214 215 216 217 219 221
49 46 44 43 40 38 36 33 30 26 23 20 18 16 14 12 11 10 8 6 4 4 0 352 344 340 339 338 339 340 339 337 335 334 335 335 333 331 329 327 326 326 321 314 313 305 283 259 247 245 240 232 226 226 228 228 225 222 218 217 219 216 212 212 213 216 218 220 219 217 216 216 215 216 218 218 218 216 214 214 215 216 217 220 221
48 46 44 42 40 38 36 33 30 26 23 21 17 14 12 10 9 8 6 4 2 2 0 357 351 341 337 338 338 338 337 336 334 334 334 333 331 329 327 327 325 322 319 314 311 308 299 280 257 245 240 231 224 222 222 219 219 219 216 214 212 208 209 213 213 213 212 214 215 214 214 214 213 215 217 218 219 217 214 214 215 216 217 219 221
47 45 44 42 40 37 35 32 29 26 22 19 17 15 12 9 7 6 4 2 0 359 357 358 355 346 339 338 337 337 336 335 335 335 333 331 331 327 324 324 322 318 315 311 306 304 300 291 273 254 242 230 220 214 212 213 212 213 213 213 213 210 209 211 211 212 211 210 210 210 209 209 209 211 214 216 217 216 215 215 215 216 217 218 220
44 44 43 42 40 36 33 31 27 24 21 17 15 15 13 10 7 6 4 1 1 359 355 355 353 347 342 339 337 337 338 337 336 334 333 332 330 327 324 321 317 313 309 306 301 298 295 293 285 269 249 235 223 213 211 215 214 211 209 208 210 210 207 204 206 210 211 209 205 204 206 206 207 208 211 214 214 213 213 215 216 216 216 217 219
43 42 42 40 38 35 32 29 25 22 19 15 14 14 13 11 9 7 5 2 0 359 355 353 349 344 340 338 337 337 337 337 336 334 332 332 330 328 326 323 317 310 302 298 297 294 291 289 286 278 262 246 234 222 217 219 215 210 208 207 206 204 200 193 190 204 208 206 203 200 201 204 206 206 209 212 213 211 211 213 215 216 216 217 218
41 40 39 37 35 32 28 26 23 21 18 15 15 14 13 12 11 9 6 3 1 358 356 353 350 344 339 336 334 334 334 335 336 334 331 330 329 328 327 325 322 317 307 296 291 288 287 284 281 278 270 259 247 231 221 221 218 212 209 209 209 207 203 195 189 199 207 206 203 199 199 202 204 205 208 212 212 211 212 213 214 216 216 216 217
40 38 37 34 31 27 25 23 22 20 18 15 16 15 13 12 12 10 8 5 1 359 356 354 352 347 342 338 334 332 332 333 334 334 331 330 330 329 327 325 323 321 317 308 296 285 281 279 274 271 268 264 256 241 229 223 217 211 208 209 211 212 211 206 200 203 207 204 199 194 196 201 202 202 206 211 211 210 211 212 214 215 216 216 217
39 37 34 31 29 26 24 22 22 21 20 18 18 16 14 13 13 11 8 6 3 0 358 357 354 350 346 342 338 333 333 333 334 334 333 331 331 329 326 322 320 319 318 315 309 299 287 277 272 269 267 265 260 252 242 229 218 213 210 208 208 211 214 216 212 210 210 206 199 193 194 201 199 199 204 209 209 209 210 212 213 214 215 215 216
42 39 36 32 30 27 24 22 23 23 22 21 20 18 14 12 12 11 8 6 3 1 360 359 357 354 350 347 342 338 336 335 335 336 336 334 331 327 323 319 317 316 314 312 311 306 297 287 278 271 269 266 261 257 251 237 226 221 218 214 213 213 215 218 216 213 211 206 199 194 194 197 197 198 203 204 204 206 209 212 214 214 214 215 215
49 46 43 37 32 29 26 24 24 24 25 24 21 18 15 12 12 11 8 5 3 0 359 359 357 355 353 350 345 342 339 337 338 340 341 339 334 327 321 318 317 314 312 311 309 305 300 295 288 280 272 264 261 259 254 244 234 229 224 220 218 214 209 209 210 207 207 203 198 197 196 191 194 197 200 200 200 201 205 210 212 213 213 213 213
51 49 45 40 35 31 28 27 25 24 25 24 21 19 16 12 11 10 7 3 1 359 359 359 357 355 355 352 348 346 342 340 342 345 347 344 338 330 324 321 318 313 311 313 314 309 304 299 294 290 280 263 256 257 255 248 241 233 225 219 216 210 201 201 205 201 200 199 197 197 196 189 190 193 192 193 196 197 202 207 209 211 213 212 211
51 48 44 41 37 33 31 29 27 25 25 25 22 20 18 14 11 10 6 3 0 358 358 358 357 356 355 353 352 351 347 345 347 350 350 347 340 333 328 325 322 316 314 316 316 312 309 305 299 295 286 264 250 251 252 248 243 236 227 221 216 206 198 202 203 190 192 197 197 196 194 185 185 184 175 171 183 191 195 200 203 206 210 212 211
49 45 42 39 36 34 31 30 29 27 25 25 24 22 19 17 14 11 9 5 0 357 356 355 353 354 354 355 357 356 352 352 353 353 354 352 345 337 333 331 325 319 319 319 315 310 308 305 300 294 284 267 252 247 247 245 242 238 233 228 220 208 201 203 196 177 180 202 197 194 189 178 176 176 171 160 159 186 189 191 198 202 205 208 209